Flag for Turkey Weather past 2 weeks in Istanbul, Turkey

63 °F


Feels Like: 63 °F
Forecast: 62 / 73 °F
Wind: 8 mph from East

Location: Istanbul Ataturk Airport

Current Time: Oct 9, 2015 at 11:19:38 PM

Latest Report: Oct 9, 2015 at 10:50 PM

Visibility: 10 mi

Pressure: 30.09 "Hg

Humidity: 68%

Dew point: 52 °F

Location of IstanbulLocation

Historic Weather in Istanbul — Graph


Istanbul temperature yesterday

Maximum temperature yesterday: 70 °F (at 2:20 PM)
Minimum temperature yesterday: 63 °F (at 6:20 AM)
Average temperature yesterday: 66 °F

Past Weeks' High & Low Weather Summary

High86 °F (Sep 26, 3:50 PM)94% (Sep 28, 9:20 PM)30.33 "Hg (Sep 28, 9:20 PM)
Low59 °F (Oct 7, 6:50 AM)37% (Sep 25, 7:20 PM)29.80 "Hg (Oct 6, 3:50 PM)
Average68 °F73%30.04 "Hg
* Reported Sep 24 9:20 PM — Oct 9 9:50 PM, Istanbul, Weather by CustomWeather, © 2015

Note: Actual official high and low records may vary slightly from our data, if they occured in-between our weather recording intervals... More about our weather records


Istanbul weather history for previous 24 hours

Time TempWeatherWind HumidityBarometerVisibility
9:50 PM
Fri, Oct 9
64 °FPassing clouds.9 mph64%30.09 "HgN/A
9:20 PM64 °FPassing clouds.10 mph64%30.09 "HgN/A
8:50 PM64 °FPassing clouds.10 mph64%30.09 "HgN/A
8:20 PM68 °FPassing clouds.12 mph56%30.09 "HgN/A
7:50 PM64 °FPassing clouds.15 mph64%30.07 "HgN/A
7:20 PM64 °FScattered clouds.10 mph64%30.07 "HgN/A
6:50 PM66 °FScattered clouds.13 mph60%30.07 "HgN/A
6:20 PM66 °FScattered clouds.12 mph64%30.07 "HgN/A
5:20 PM68 °FScattered clouds.10 mph56%30.07 "HgN/A
4:50 PM70 °FScattered clouds.9 mph50%30.07 "HgN/A
4:20 PM68 °FPassing clouds.12 mph49%30.07 "HgN/A
3:50 PM70 °FScattered clouds.9 mph46%30.04 "HgN/A
3:20 PM70 °FScattered clouds.8 mph46%30.04 "HgN/A
2:50 PM70 °FPassing clouds.9 mph43%30.04 "HgN/A
2:20 PM70 °FPassing clouds.10 mph43%30.04 "HgN/A
1:50 PM70 °FScattered clouds.8 mph46%30.07 "HgN/A
1:20 PM68 °FScattered clouds.12 mph46%30.07 "HgN/A
12:50 PM68 °FScattered clouds.10 mph46%30.07 "HgN/A
12:20 PM68 °FPartly sunny.12 mph46%30.07 "HgN/A
11:50 AM66 °FPartly sunny.12 mph49%30.07 "HgN/A
11:20 AM66 °FPartly sunny.12 mph49%30.07 "HgN/A
10:50 AM66 °FPartly sunny.12 mph52%30.07 "HgN/A
10:20 AM66 °FScattered clouds.12 mph52%30.07 "HgN/A
9:50 AM64 °FScattered clouds.13 mph56%30.07 "HgN/A
9:20 AM63 °FSunny.15 mph64%30.04 "Hg10 mi
8:50 AM63 °FPassing clouds.13 mph64%30.04 "HgN/A
8:20 AM61 °FPassing clouds.13 mph68%30.04 "HgN/A
7:50 AM61 °FClear.12 mph68%30.04 "Hg10 mi
7:20 AM61 °FPassing clouds.10 mph68%30.04 "HgN/A
6:50 AM61 °FPassing clouds.9 mph68%30.04 "HgN/A
6:20 AM61 °FPassing clouds.12 mph68%30.04 "HgN/A
5:50 AM61 °FClear.12 mph72%30.04 "Hg10 mi
5:20 AM61 °FPassing clouds.12 mph72%30.04 "HgN/A
4:50 AM61 °FPassing clouds.12 mph72%30.04 "HgN/A
4:20 AM61 °FClear.12 mph72%30.04 "Hg10 mi
3:50 AM61 °FClear.10 mph72%30.04 "Hg10 mi
3:20 AM61 °FPassing clouds.12 mph72%30.04 "HgN/A
2:50 AM61 °FClear.12 mph77%30.04 "Hg10 mi
2:20 AM61 °FPassing clouds.10 mph77%30.04 "HgN/A
1:50 AM64 °FPassing clouds.9 mph68%30.04 "HgN/A
1:20 AM63 °FPassing clouds.10 mph73%30.04 "HgN/A
12:50 AM63 °FPassing clouds.12 mph73%30.04 "HgN/A
12:20 AM63 °FPassing clouds.12 mph73%30.04 "HgN/A
11:50 PM
Thu, Oct 8
63 °FPassing clouds.14 mph73%30.04 "HgN/A
11:20 PM64 °FPassing clouds.10 mph68%30.04 "HgN/A
Weather by CustomWeather, © 2015

See weather overviewHow to use our weather pages